Temperature
-1 -0 -0 0 0 0 0 1 1 1 1 1 0 -0 0 0 1 1 1 1 1 1 2 2 3 3 3 4 4 4 5 5 5 5 5 5 5 5 5 5 5 5 5 5
-1 0 0 -0 0 0 0 0 0 0 0 0 -0 -0 -0 -0 -0 -0 -0 0 1 1 1 2 2 2 3 3 4 4 4 4 5 5 5 5 5 5 5 5 5 5 5 5
-2 -1 -0 -1 -1 -1 -1 -1 -1 -0 -0 -1 -1 -1 -1 -1 -1 -1 -1 -1 0 1 1 1 2 2 2 3 3 3 3 3 4 4 4 4 4 4 4 4 4 4 4 4
-3 -2 -2 -1 -1 -1 -1 -2 -2 -1 -2 -2 -1 -1 -1 -1 -1 -1 -1 -1 -0 0 0 1 1 1 2 2 2 2 2 3 3 3 3 3 3 4 4 4 4 4 4 3
-4 -3 -2 -1 -1 -2 -2 -2 -2 -2 -2 -2 -2 -1 -1 -1 -1 -1 -1 -1 -1 -0 0 1 1 1 1 1 2 2 2 2 2 3 3 3 3 3 3 3 3 3 3 3
-4 -3 -2 -2 -2 -2 -2 -2 -2 -2 -3 -3 -2 -3 -2 -2 -2 -2 -2 -1 -1 -0 0 0 1 1 1 1 1 1 1 1 2 2 2 2 2 2 2 2 2 2 2 2
-4 -4 -3 -3 -3 -2 -2 -2 -3 -3 -3 -3 -3 -3 -2 -2 -2 -2 -2 -1 -1 -1 -0 0 0 0 0 0 1 1 1 1 1 1 1 2 2 2 2 2 2 1 1 1
-5 -4 -3 -3 -3 -3 -3 -3 -3 -3 -3 -3 -3 -3 -3 -3 -3 -2 -2 -2 -2 -1 -1 -0 -0 -0 -0 -0 0 0 0 0 0 1 1 1 1 1 1 1 1 1 1 1
-5 -4 -3 -3 -3 -3 -3 -3 -3 -3 -3 -3 -3 -3 -3 -3 -3 -3 -3 -2 -2 -2 -1 -1 -1 -1 -1 -1 -1 -1 -0 -0 -0 0 0 0 0 1 1 0 0 0 0 0
-6 -5 -4 -3 -3 -3 -3 -3 -3 -3 -3 -3 -3 -3 -4 -4 -4 -4 -3 -3 -3 -2 -2 -2 -2 -2 -1 -1 -1 -1 -1 -1 -1 -1 -0 -0 -0 -0 -0 -0 -0 -0 -0 -0
-6 -5 -4 -4 -3 -3 -3 -3 -3 -3 -3 -4 -4 -4 -4 -4 -4 -4 -4 -4 -3 -3 -3 -3 -2 -2 -2 -2 -2 -1 -1 -1 -1 -1 -1 -1 -1 -1 -1 -1 -1 -1 -1 -1
-5 -5 -5 -4 -3 -3 -4 -4 -4 -4 -4 -4 -4 -4 -4 -4 -4 -4 -4 -4 -4 -4 -3 -3 -3 -3 -2 -2 -2 -2 -2 -2 -2 -2 -1 -1 -1 -2 -2 -2 -1 -2 -1 -1
-3 -3 -4 -4 -4 -4 -4 -4 -4 -4 -4 -4 -4 -4 -4 -5 -5 -5 -4 -4 -4 -4 -4 -4 -4 -3 -3 -3 -3 -2 -2 -2 -2 -2 -2 -2 -2 -2 -2 -2 -2 -2 -2 -2
-4 -4 -5 -4 -4 -4 -4 -4 -4 -4 -5 -5 -5 -5 -5 -5 -5 -5 -5 -5 -5 -5 -4 -4 -4 -4 -4 -3 -3 -3 -3 -3 -3 -3 -2 -2 -2 -3 -3 -3 -3 -3 -3 -3
-4 -5 -5 -5 -5 -5 -5 -5 -5 -5 -5 -5 -5 -5 -5 -5 -5 -5 -5 -5 -5 -5 -5 -5 -4 -4 -4 -4 -4 -4 -4 -3 -3 -3 -3 -3 -3 -3 -3 -3 -3 -3 -3 -3
-5 -5 -5 -5 -5 -5 -5 -5 -5 -5 -5 -5 -5 -5 -5 -5 -5 -5 -5 -5 -5 -5 -5 -5 -5 -5 -5 -5 -4 -4 -4 -4 -4 -4 -4 -4 -4 -4 -4 -4 -4 -3 -3 -3
-5 -5 -6 -6 -6 -6 -5 -5 -5 -6 -6 -6 -6 -6 -6 -6 -6 -5 -6 -6 -6 -5 -5 -5 -5 -5 -5 -5 -5 -5 -5 -4 -4 -4 -4 -4 -4 -4 -4 -4 -4 -4 -4 -4
-5 -5 -5 -5 -6 -6 -6 -6 -6 -6 -6 -6 -6 -6 -6 -6 -6 -6 -6 -6 -6 -6 -6 -6 -6 -6 -5 -5 -5 -5 -5 -5 -5 -5 -5 -5 -5 -5 -5 -5 -5 -4 -4 -4
-5 -5 -5 -6 -6 -6 -6 -6 -6 -6 -6 -6 -6 -6 -6 -6 -6 -6 -6 -6 -6 -6 -6 -6 -6 -6 -6 -6 -5 -5 -5 -5 -5 -5 -5 -5 -5 -5 -5 -5 -5 -5 -5 -5
-5 -6 -6 -6 -6 -6 -6 -6 -6 -6 -6 -7 -7 -7 -7 -7 -7 -7 -7 -7 -7 -7 -7 -7 -6 -6 -6 -6 -6 -6 -6 -5 -5 -5 -5 -5 -5 -6 -5 -5 -5 -5 -5 -5
-5 -6 -6 -6 -6 -6 -6 -7 -7 -7 -7 -7 -7 -7 -7 -7 -7 -7 -7 -7 -7 -7 -7 -7 -7 -6 -6 -6 -6 -6 -6 -6 -6 -6 -6 -6 -6 -6 -6 -6 -6 -5 -5 -5
-6 -6 -6 -6 -6 -7 -7 -7 -7 -7 -7 -7 -7 -7 -7 -7 -7 -7 -7 -7 -7 -7 -7 -7 -7 -7 -7 -7 -7 -6 -6 -6 -6 -6 -6 -6 -6 -6 -6 -6 -6 -6 -6 -6
-6 -6 -6 -7 -7 -7 -7 -7 -7 -7 -7 -8 -8 -8 -8 -8 -8 -7 -7 -7 -8 -8 -7 -7 -7 -7 -7 -7 -7 -7 -7 -7 -7 -7 -7 -7 -7 -6 -6 -6 -6 -6 -6 -6
-6 -6 -7 -7 -7 -7 -7 -7 -7 -8 -8 -8 -8 -8 -8 -8 -8 -8 -8 -8 -8 -8 -8 -8 -8 -8 -8 -7 -7 -7 -7 -7 -7 -7 -7 -7 -7 -7 -7 -7 -7 -7 -7 -7
-6 -7 -7 -7 -7 -7 -8 -8 -8 -8 -8 -8 -8 -8 -8 -8 -8 -8 -8 -8 -8 -8 -8 -8 -8 -8 -8 -7 -7 -7 -7 -7 -7 -7 -7 -7 -7 -7 -7 -7 -7 -7 -7 -7
-7 -7 -7 -7 -7 -8 -8 -8 -8 -8 -8 -8 -8 -8 -8 -8 -8 -8 -8 -8 -8 -8 -8 -8 -8 -8 -8 -8 -8 -8 -7 -7 -7 -8 -7 -7 -7 -7 -7 -7 -7 -7 -7 -7
-7 -7 -8 -8 -8 -8 -8 -8 -8 -8 -8 -8 -8 -8 -8 -8 -8 -8 -8 -8 -8 -8 -8 -8 -8 -8 -8 -8 -8 -8 -8 -8 -8 -8 -8 -8 -8 -7 -7 -7 -7 -7 -7 -7
Wind_Speed
5 6 3 3 4 3 4 4 4 4 4 5 4 3 3 3 4 4 4 4 3 4 4 4 4 4 3 2 1 0 0 1 1 2 3 4 5 6 5 5 5 5 5 4
3 3 2 3 4 3 3 2 3 3 4 4 3 3 3 4 3 3 4 4 4 4 4 4 4 4 4 3 2 0 1 1 1 2 4 4 5 6 6 5 5 5 5 4
3 5 4 2 4 2 1 1 2 3 4 4 4 5 4 4 3 4 4 5 5 4 4 4 4 3 3 3 2 0 1 1 1 3 4 4 5 6 6 5 5 5 4 4
1 4 2 4 2 1 1 1 1 1 3 4 5 6 4 2 1 4 6 6 5 5 5 4 4 3 3 2 1 1 1 1 1 2 3 4 5 6 5 5 5 4 4 4
1 1 5 4 2 1 2 2 2 3 4 5 5 4 3 2 3 4 5 6 5 5 5 4 3 2 2 2 1 1 1 1 1 2 3 5 5 5 5 5 4 3 3 3
2 1 4 4 4 4 1 3 3 3 4 4 3 2 4 5 6 6 6 5 5 4 4 3 3 1 1 1 1 0 0 0 0 2 3 5 5 5 4 5 4 4 3 3
2 3 6 5 6 2 2 4 4 3 4 3 2 4 5 5 5 5 5 6 5 4 3 3 2 1 1 0 1 1 0 1 1 2 3 4 5 4 5 5 5 4 4 2
3 3 6 3 1 1 4 3 3 4 4 3 4 4 4 4 5 5 5 6 5 4 3 3 2 1 1 1 1 0 2 2 2 2 3 4 5 5 5 6 6 4 4 3
6 6 4 2 3 3 2 3 4 3 4 3 3 3 4 4 4 4 4 5 4 3 3 3 3 1 1 1 1 1 3 3 3 3 3 4 5 5 5 5 4 4 3 3
4 6 5 4 3 3 3 4 5 4 4 3 3 3 4 4 4 4 4 4 4 3 3 4 3 2 1 1 1 3 3 3 3 4 4 4 4 4 4 4 4 4 3 3
5 6 5 4 4 4 4 4 4 3 3 3 2 3 3 3 3 3 4 4 3 2 3 3 3 2 1 1 2 3 3 3 3 4 4 4 3 3 3 2 3 4 3 3
6 5 4 5 5 4 4 4 4 3 2 2 2 2 2 2 3 3 3 3 3 3 3 3 3 3 2 1 3 4 3 3 3 3 3 3 4 4 5 4 6 5 4 3
6 4 5 5 4 3 4 4 3 2 2 2 2 1 1 2 2 2 2 2 2 2 2 2 2 3 3 2 2 3 3 3 2 3 3 3 3 4 3 4 6 6 5 4
5 2 3 3 4 3 3 2 1 1 1 1 1 1 1 1 2 2 2 2 2 2 2 2 2 3 3 2 3 3 3 3 3 3 3 3 3 3 3 3 2 2 3 4
4 4 5 3 3 2 1 0 0 1 1 1 1 0 0 1 1 2 2 2 2 2 2 2 3 3 3 2 3 3 2 2 3 2 2 3 3 3 3 3 2 1 1 2
3 2 2 2 2 2 1 1 2 2 1 1 1 1 1 0 1 2 2 2 2 2 2 2 3 3 2 2 2 2 2 3 3 3 3 3 2 3 2 2 1 1 1 0
4 4 3 3 3 3 3 3 3 3 2 2 2 1 0 1 1 2 2 2 2 2 2 2 2 2 2 2 2 1 2 2 3 3 2 2 2 2 2 2 1 1 0 1
6 6 5 5 4 4 4 3 2 2 2 2 1 1 1 0 0 1 1 2 2 3 3 2 2 2 2 2 2 1 2 2 2 2 2 2 2 2 2 1 1 1 0 1
5 5 4 4 4 4 3 3 2 2 1 1 1 1 1 1 1 1 1 1 2 2 3 3 3 3 2 2 2 2 2 2 2 2 2 2 2 2 1 1 1 0 0 0
4 3 3 3 3 3 3 2 2 1 1 1 1 1 0 0 0 0 0 0 1 1 2 2 2 2 1 1 2 2 2 3 2 2 2 2 2 1 1 1 0 0 0 0
4 3 3 3 2 2 2 2 2 2 1 1 2 2 1 1 0 0 1 1 2 2 2 2 2 1 1 1 2 2 2 2 2 2 2 2 2 1 1 0 0 0 0 1
4 4 4 3 3 2 1 1 2 2 2 1 1 1 1 0 0 0 1 1 1 2 2 1 1 1 1 2 2 2 2 2 2 2 2 1 1 1 1 0 0 1 1 1
4 4 4 4 3 2 1 1 2 2 2 2 2 1 1 1 1 1 1 1 1 1 1 1 1 1 2 2 2 2 2 2 1 1 1 1 1 1 1 1 1 1 1 1
4 3 3 3 3 3 2 2 1 1 1 1 1 2 1 1 1 1 1 1 1 1 1 1 1 2 2 2 2 2 2 1 1 1 1 1 1 1 0 1 1 1 1 2
4 4 3 4 4 3 3 2 2 1 1 1 1 1 1 1 1 1 1 1 0 1 1 1 2 2 3 2 2 1 1 1 1 1 1 1 1 0 0 1 1 1 1 2
4 4 4 4 3 3 3 3 2 2 2 1 0 1 1 0 0 0 0 0 1 1 1 1 1 2 2 2 1 1 1 1 1 1 1 0 0 0 1 1 2 2 2 2
3 3 2 2 2 3 3 3 3 2 2 2 1 1 0 0 1 1 1 1 1 1 1 1 1 1 1 1 1 1 1 1 1 0 0 0 1 1 1 2 2 2 2 2
Wind_Direction
259 264 249 267 275 251 211 208 210 245 258 286 303 307 322 337 341 356 357 354 354 348 341 339 340 336 325 309 303 302 165 177 201 176 158 153 148 146 144 143 144 143 140 141
306 303 309 301 295 271 243 228 219 254 278 307 319 345 339 333 335 334 332 331 332 331 330 327 324 324 329 327 315 319 136 172 157 142 143 146 146 141 137 136 135 134 140 145
301 322 360 312 285 261 230 231 197 230 264 321 326 316 301 299 315 320 312 316 319 316 311 311 311 314 316 316 327 29 114 138 130 136 146 149 144 139 141 141 133 134 141 144
316 10 272 245 267 256 216 324 322 269 302 305 297 298 296 291 308 315 318 317 317 317 314 313 313 321 327 333 8 54 89 104 125 131 148 145 139 139 141 140 138 140 145 145
126 279 281 294 313 322 247 273 314 299 314 322 328 334 317 327 332 317 315 315 310 310 307 312 316 320 346 356 32 68 104 123 151 142 147 145 144 145 142 136 132 139 148 142
138 197 244 263 298 303 213 279 316 326 308 313 348 333 291 322 334 332 332 328 324 326 327 328 321 329 34 0 43 74 174 189 150 140 142 147 148 143 134 134 137 136 133 134
186 226 265 278 302 335 168 260 304 303 295 288 260 248 281 312 326 328 331 332 336 339 338 329 326 15 69 64 313 282 123 102 82 110 128 138 136 133 134 131 127 128 127 116
171 211 258 302 20 177 239 281 287 285 282 285 281 291 303 315 324 334 338 339 341 348 346 346 355 60 71 0 319 55 107 101 88 92 113 120 124 126 129 131 129 128 123 110
199 219 249 239 216 246 256 271 280 282 290 285 291 297 311 315 322 326 330 335 340 352 357 355 360 32 82 336 13 93 96 97 92 93 99 111 117 125 129 132 136 139 135 130
254 263 263 261 260 279 274 265 276 275 275 274 271 282 301 308 317 326 334 340 347 2 5 355 351 354 359 28 92 106 103 98 99 103 100 101 110 118 128 136 139 140 139 135
255 275 298 278 263 279 289 299 295 290 268 251 245 274 286 300 313 322 330 339 352 0 353 348 355 353 338 87 117 110 104 103 103 104 105 103 103 106 115 123 138 146 154 157
236 233 221 254 260 269 278 290 287 282 291 278 241 256 281 295 304 313 323 339 353 2 2 356 2 5 3 58 112 116 113 110 113 113 110 108 109 94 77 92 89 89 100 118
231 234 225 253 264 266 261 274 282 269 255 277 282 250 270 295 304 318 328 338 346 354 358 2 8 11 12 33 87 113 124 125 122 118 120 119 119 118 104 79 78 78 82 86
236 225 246 250 256 268 263 271 297 322 314 276 278 298 302 306 319 329 329 330 347 8 11 17 26 14 8 39 69 90 109 117 118 120 121 122 122 123 124 120 107 79 68 72
234 222 228 251 260 272 270 282 21 333 347 340 331 302 292 310 318 323 334 347 15 25 18 24 27 7 4 45 74 84 96 109 113 115 115 115 115 115 112 110 113 112 82 63
243 233 217 228 250 262 253 216 220 254 269 291 300 293 289 290 325 344 356 10 35 21 7 14 11 358 11 50 77 88 99 110 112 118 117 115 116 117 118 122 123 113 89 15
201 222 221 232 240 246 242 236 231 237 243 249 260 270 277 79 41 12 4 4 10 4 359 4 358 1 19 50 83 98 99 114 109 107 115 124 126 129 137 143 147 152 222 293
212 218 213 212 218 228 240 242 231 230 236 241 232 192 165 165 259 303 336 6 20 18 4 357 10 24 31 52 81 97 106 116 119 119 116 115 118 125 130 141 152 152 157 356
211 214 214 214 210 207 218 227 229 229 235 203 176 195 212 232 253 293 6 44 33 2 340 345 15 34 43 49 73 95 107 109 106 107 110 112 96 99 110 126 145 147 343 349
210 207 202 203 195 194 208 213 203 206 213 182 166 160 186 259 262 94 81 28 309 299 311 342 16 32 35 48 61 100 110 113 115 112 110 111 112 112 114 126 154 139 356 321
202 194 189 190 193 201 201 194 185 197 207 185 183 200 215 249 245 154 118 336 328 335 347 356 22 31 43 62 61 97 108 111 115 120 124 123 121 118 116 129 193 256 279 291
196 192 195 191 184 197 207 186 182 181 174 172 182 182 168 196 323 357 284 262 297 339 7 9 29 47 69 75 80 95 102 106 109 114 120 127 133 133 136 191 247 284 296 294
194 191 191 192 190 187 172 179 182 175 179 189 198 204 205 223 217 196 288 307 316 341 10 23 49 62 74 70 84 90 92 95 101 111 119 130 139 148 178 236 265 280 286 292
186 185 185 176 154 153 179 210 196 182 183 199 214 218 211 211 288 268 253 280 335 12 35 42 62 75 69 73 86 90 93 93 95 104 110 115 123 141 190 250 268 280 284 293
182 177 168 165 175 192 196 181 163 168 170 188 241 252 237 213 213 255 281 292 294 43 43 41 58 67 69 77 84 86 89 105 120 125 126 130 149 185 239 266 275 279 286 290
178 183 189 195 194 187 177 170 174 187 181 178 244 272 252 240 216 221 60 43 59 88 64 41 38 59 71 82 83 78 72 56 39 49 87 133 201 257 272 285 293 288 288 291
171 172 171 178 187 178 173 172 177 187 189 187 206 237 215 149 120 105 90 74 64 68 77 68 59 63 68 74 76 69 60 47 33 22 329 271 268 276 283 286 287 288 291 291
Height
1497 1493 1493 1492 1491 1489 1489 1489 1490 1485 1483 1481 1480 1479 1477 1476 1474 1472 1471 1470 1469 1468 1467 1467 1466 1466 1467 1467 1468 1469 1469 1470 1472 1474 1476 1479 1481 1483 1486 1488 1490 1492 1494 1496
1497 1490 1490 1490 1489 1487 1487 1487 1487 1485 1485 1482 1480 1479 1477 1476 1474 1473 1471 1470 1468 1467 1466 1465 1465 1464 1464 1465 1465 1466 1467 1468 1469 1471 1474 1476 1478 1481 1484 1486 1488 1490 1492 1493
1501 1495 1491 1494 1491 1489 1488 1487 1486 1485 1485 1482 1480 1479 1477 1475 1474 1473 1471 1470 1468 1466 1465 1464 1464 1463 1463 1463 1463 1464 1465 1466 1467 1469 1472 1474 1476 1479 1482 1484 1486 1488 1490 1491
1505 1503 1502 1495 1490 1488 1487 1487 1486 1484 1483 1482 1480 1478 1476 1475 1474 1472 1470 1468 1466 1465 1464 1463 1462 1462 1461 1461 1462 1462 1463 1464 1466 1467 1470 1472 1474 1477 1479 1482 1484 1486 1487 1489
1509 1508 1501 1492 1489 1489 1488 1487 1486 1484 1482 1481 1479 1476 1475 1474 1473 1472 1470 1468 1466 1464 1462 1460 1460 1459 1459 1459 1459 1460 1461 1462 1464 1466 1468 1470 1472 1475 1477 1480 1482 1484 1485 1487
1510 1507 1502 1493 1489 1487 1489 1488 1485 1483 1482 1480 1479 1479 1475 1473 1471 1470 1468 1466 1464 1462 1460 1458 1457 1457 1457 1457 1458 1458 1460 1461 1462 1464 1466 1468 1470 1473 1475 1477 1479 1481 1483 1484
1510 1509 1500 1492 1488 1487 1492 1489 1484 1482 1481 1479 1479 1478 1475 1472 1470 1468 1467 1464 1462 1460 1458 1457 1456 1455 1455 1455 1456 1457 1458 1460 1461 1463 1464 1466 1469 1471 1473 1475 1477 1479 1481 1482
1510 1508 1501 1489 1487 1489 1488 1484 1483 1481 1479 1478 1476 1474 1472 1471 1469 1467 1465 1463 1461 1458 1457 1456 1455 1454 1454 1454 1455 1456 1457 1459 1460 1461 1463 1465 1467 1469 1472 1473 1475 1477 1479 1480
1501 1496 1489 1486 1485 1485 1484 1482 1481 1479 1477 1476 1474 1472 1470 1469 1467 1466 1464 1462 1460 1458 1456 1455 1454 1454 1453 1454 1454 1455 1456 1458 1459 1460 1462 1464 1466 1468 1470 1472 1473 1475 1476 1478
1494 1488 1485 1484 1483 1482 1481 1480 1478 1477 1476 1474 1472 1471 1469 1467 1466 1464 1462 1461 1459 1457 1455 1454 1454 1454 1454 1453 1454 1455 1456 1457 1458 1459 1461 1463 1465 1467 1469 1470 1472 1473 1474 1476
1490 1485 1483 1481 1480 1480 1479 1477 1476 1475 1473 1472 1471 1469 1468 1466 1465 1463 1462 1460 1458 1457 1455 1454 1454 1454 1454 1454 1454 1455 1455 1457 1458 1459 1461 1463 1465 1467 1468 1470 1471 1472 1473 1475
1485 1481 1481 1479 1478 1477 1476 1475 1474 1472 1471 1470 1469 1468 1467 1465 1464 1462 1461 1459 1457 1456 1455 1454 1453 1453 1453 1453 1454 1454 1455 1456 1458 1459 1461 1463 1465 1466 1468 1469 1471 1472 1473 1474
1478 1477 1477 1476 1475 1474 1473 1472 1471 1470 1469 1468 1467 1466 1465 1464 1463 1461 1460 1458 1457 1456 1455 1454 1453 1453 1453 1453 1454 1454 1455 1456 1458 1459 1461 1463 1464 1465 1467 1469 1470 1471 1472 1473
1474 1474 1473 1472 1472 1471 1471 1470 1469 1468 1467 1467 1466 1465 1464 1463 1462 1460 1459 1458 1457 1455 1455 1454 1453 1453 1453 1453 1454 1454 1455 1456 1458 1459 1461 1462 1464 1465 1466 1467 1468 1470 1471 1472
1471 1471 1470 1469 1469 1469 1468 1468 1467 1466 1465 1465 1464 1463 1462 1461 1460 1459 1458 1457 1456 1455 1454 1454 1453 1453 1453 1453 1454 1454 1455 1456 1457 1459 1460 1462 1463 1464 1465 1467 1468 1468 1469 1470
1467 1467 1467 1467 1466 1466 1466 1465 1464 1464 1463 1463 1462 1462 1461 1460 1459 1458 1458 1457 1456 1455 1454 1453 1453 1453 1453 1454 1454 1455 1455 1456 1457 1458 1460 1461 1462 1464 1465 1466 1467 1467 1468 1469
1464 1463 1463 1463 1463 1463 1463 1463 1462 1462 1461 1461 1461 1460 1460 1459 1458 1457 1457 1456 1455 1455 1454 1454 1453 1453 1453 1453 1454 1454 1455 1456 1457 1458 1459 1460 1462 1463 1464 1465 1465 1466 1467 1467
1460 1460 1460 1460 1460 1460 1460 1460 1460 1460 1460 1459 1459 1459 1458 1458 1457 1456 1456 1455 1455 1454 1454 1453 1453 1453 1453 1453 1453 1454 1455 1456 1457 1458 1458 1460 1461 1462 1463 1463 1464 1464 1465 1465
1456 1457 1457 1457 1458 1458 1458 1458 1458 1458 1458 1457 1457 1457 1456 1456 1456 1455 1455 1454 1453 1453 1453 1453 1453 1452 1452 1453 1453 1454 1454 1455 1456 1457 1458 1459 1460 1460 1461 1462 1462 1463 1463 1463
1453 1454 1454 1455 1455 1455 1455 1456 1456 1456 1456 1456 1455 1455 1455 1455 1454 1454 1453 1453 1452 1452 1452 1452 1452 1452 1452 1452 1453 1453 1454 1454 1455 1456 1457 1458 1458 1459 1460 1460 1461 1461 1461 1461
1450 1451 1451 1452 1452 1453 1453 1453 1454 1454 1454 1454 1454 1453 1453 1453 1453 1453 1452 1451 1452 1452 1452 1452 1452 1452 1452 1452 1453 1453 1453 1454 1455 1455 1456 1457 1457 1458 1458 1458 1459 1459 1459 1459
1448 1448 1449 1449 1450 1450 1451 1451 1452 1452 1452 1452 1452 1452 1452 1451 1451 1451 1451 1451 1451 1451 1451 1451 1451 1452 1452 1452 1452 1453 1453 1454 1454 1455 1455 1456 1456 1456 1457 1457 1457 1458 1458 1457
1446 1446 1447 1447 1448 1448 1449 1449 1450 1450 1450 1450 1450 1450 1450 1450 1450 1450 1450 1451 1450 1450 1450 1451 1451 1451 1452 1452 1452 1453 1453 1454 1454 1454 1455 1455 1455 1455 1455 1456 1456 1456 1456 1456
1443 1444 1445 1445 1446 1446 1447 1447 1448 1448 1449 1449 1449 1449 1449 1449 1449 1450 1450 1450 1450 1450 1450 1450 1451 1451 1451 1452 1452 1452 1453 1453 1454 1454 1454 1454 1454 1454 1454 1454 1454 1454 1454 1454
1441 1441 1442 1443 1443 1444 1445 1445 1446 1447 1447 1447 1448 1448 1448 1448 1449 1449 1449 1449 1449 1450 1450 1450 1450 1451 1451 1451 1452 1452 1452 1453 1453 1453 1453 1453 1453 1453 1453 1453 1453 1452 1452 1452
1438 1439 1440 1440 1441 1442 1443 1443 1444 1445 1445 1446 1446 1447 1447 1448 1448 1448 1448 1448 1449 1449 1449 1450 1450 1450 1450 1451 1451 1451 1451 1452 1452 1452 1452 1452 1452 1451 1451 1451 1451 1451 1450 1450
1436 1436 1437 1438 1439 1440 1441 1441 1442 1443 1444 1444 1445 1445 1446 1446 1447 1447 1447 1448 1448 1448 1449 1449 1449 1450 1450 1450 1450 1450 1451 1451 1451 1451 1451 1450 1450 1450 1450 1450 1449 1449 1449 1448